TimePST,TemperatureF,Dew PointF,Humidity,Sea Level PressureIn,VisibilityMPH,Wind Direction,Wind SpeedMPH,Gust SpeedMPH,PrecipitationIn,Events,Conditions,WindDirDegrees,DateUTC
12:27 AM,41.0,37.4,87,29.87,1.2,SSE,8.1,-,0.19,Rain,Rain,150,2013-01-26 08:27:00
12:32 AM,41.0,35.6,81,29.86,2.0,SSE,9.2,-,0.21,Rain,Light Rain,160,2013-01-26 08:32:00
12:40 AM,41.0,37.4,87,29.86,5.0,SE,5.8,-,0.21,Rain,Light Rain,140,2013-01-26 08:40:00
12:53 AM,41.0,36.0,82,29.86,5.0,SE,8.1,-,0.21,Rain,Light Rain,140,2013-01-26 08:53:00
1:45 AM,39.2,35.6,87,29.85,2.5,East,6.9,-,0.01,Rain,Light Rain,100,2013-01-26 09:45:00
1:53 AM,39.9,36.0,86,29.85,2.5,East,5.8,-,0.02,Rain,Light Rain,100,2013-01-26 09:53:00
2:04 AM,39.2,35.6,87,29.85,3.0,East,5.8,-,0.01,Rain,Light Rain,100,2013-01-26 10:04:00
2:53 AM,39.9,36.0,86,29.84,7.0,East,3.5,-,0.02,,Overcast,90,2013-01-26 10:53:00
3:53 AM,41.0,36.0,82,29.84,7.0,East,4.6,-,N/A,,Overcast,90,2013-01-26 11:53:00
4:53 AM,41.0,36.0,82,29.84,3.0,Calm,Calm,-,0.01,Rain,Light Rain,0,2013-01-26 12:53:00
5:53 AM,41.0,36.0,82,29.85,5.0,Variable,4.6,-,0.00,,Haze,0,2013-01-26 13:53:00
6:53 AM,39.9,36.0,86,29.86,5.0,Calm,Calm,-,0.01,,Overcast,0,2013-01-26 14:53:00
7:14 AM,39.2,35.6,87,29.86,6.0,Calm,Calm,-,0.00,,Overcast,0,2013-01-26 15:14:00
7:39 AM,39.2,35.6,87,29.87,6.0,Calm,Calm,-,0.00,Rain,Light Rain,0,2013-01-26 15:39:00
7:53 AM,39.9,36.0,86,29.88,5.0,Calm,Calm,-,0.00,,Overcast,0,2013-01-26 15:53:00
8:42 AM,39.2,35.6,87,29.89,2.5,Calm,Calm,-,0.00,Rain,Light Rain,0,2013-01-26 16:42:00
8:50 AM,41.0,35.6,81,29.89,1.2,Calm,Calm,-,0.01,Rain,Rain,0,2013-01-26 16:50:00
8:53 AM,41.0,36.0,82,29.89,1.0,Calm,Calm,-,0.01,Rain,Light Rain,0,2013-01-26 16:53:00
9:02 AM,41.0,37.4,87,29.89,2.0,Calm,Calm,-,0.01,Rain,Light Rain,0,2013-01-26 17:02:00
9:11 AM,41.0,35.6,81,29.89,4.0,NE,3.5,-,0.01,Rain,Light Rain,50,2013-01-26 17:11:00
9:35 AM,41.0,37.4,87,29.90,5.0,Calm,Calm,-,0.01,,Overcast,0,2013-01-26 17:35:00
9:53 AM,42.1,37.9,85,29.91,5.0,Calm,Calm,-,0.01,,Mostly Cloudy,0,2013-01-26 17:53:00
10:18 AM,42.8,37.4,81,29.91,5.0,Calm,Calm,-,N/A,,Overcast,0,2013-01-26 18:18:00
10:36 AM,42.8,37.4,81,29.92,1.8,Calm,Calm,-,0.01,Rain,Light Rain,0,2013-01-26 18:36:00
10:44 AM,42.8,37.4,81,29.92,1.0,Calm,Calm,-,0.02,Rain,Rain,0,2013-01-26 18:44:00
10:53 AM,42.1,37.9,85,29.93,2.5,Calm,Calm,-,0.04,Rain,Light Rain,0,2013-01-26 18:53:00
11:02 AM,42.8,39.2,87,29.92,3.0,SE,3.5,-,0.00,Rain,Light Rain,140,2013-01-26 19:02:00
11:53 AM,43.0,39.0,86,29.93,5.0,Calm,Calm,-,0.00,,Overcast,0,2013-01-26 19:53:00
12:01 PM,44.6,39.2,81,29.92,3.0,Calm,Calm,-,N/A,,Haze,0,2013-01-26 20:01:00
12:34 PM,44.6,39.2,81,29.92,3.0,Calm,Calm,-,0.00,Rain,Light Rain,0,2013-01-26 20:34:00
12:43 PM,44.6,41.0,87,29.92,1.8,Calm,Calm,-,0.00,Rain,Light Rain,0,2013-01-26 20:43:00
12:53 PM,44.1,39.9,85,29.93,1.0,South,3.5,-,0.01,Rain,Light Rain,190,2013-01-26 20:53:00
1:01 PM,44.6,39.2,81,29.92,2.0,Calm,Calm,-,0.00,Rain,Light Rain,0,2013-01-26 21:01:00
1:10 PM,44.6,39.2,81,29.92,1.8,SSE,3.5,-,0.00,Rain,Light Rain,150,2013-01-26 21:10:00
1:28 PM,44.6,39.2,81,29.92,3.0,SSE,4.6,-,0.01,Rain,Light Rain,150,2013-01-26 21:28:00
1:53 PM,45.0,39.9,82,29.93,2.0,South,3.5,-,0.01,,Haze,190,2013-01-26 21:53:00
1:55 PM,44.6,41.0,87,29.92,1.5,SSW,3.5,-,N/A,,Overcast,200,2013-01-26 21:55:00
2:00 PM,44.6,39.2,81,29.92,0.8,South,4.6,-,N/A,,Overcast,180,2013-01-26 22:00:00
2:11 PM,44.6,41.0,87,29.92,0.5,Calm,Calm,-,0.00,Fog-Rain,Light Rain,0,2013-01-26 22:11:00
2:32 PM,44.6,39.2,81,29.92,1.8,Variable,3.5,-,0.01,Rain,Light Rain,0,2013-01-26 22:32:00
2:34 PM,44.6,39.2,81,29.92,3.0,Variable,3.5,-,0.01,,Overcast,0,2013-01-26 22:34:00
2:53 PM,45.0,39.9,82,29.93,4.0,Calm,Calm,-,0.01,Rain,Light Rain,0,2013-01-26 22:53:00
3:13 PM,44.6,39.2,81,29.93,4.0,South,4.6,-,0.00,,Haze,190,2013-01-26 23:13:00
3:18 PM,44.6,39.2,81,29.93,2.5,SSW,3.5,-,0.00,Rain,Light Rain,200,2013-01-26 23:18:00
3:34 PM,44.6,39.2,81,29.94,1.8,South,3.5,-,0.00,Rain,Light Rain,190,2013-01-26 23:34:00
3:42 PM,44.6,39.2,81,29.94,1.2,Variable,3.5,-,0.00,Rain,Light Rain,0,2013-01-26 23:42:00
3:53 PM,44.1,39.9,85,29.94,1.8,SSE,3.5,-,0.01,Rain,Light Rain,160,2013-01-26 23:53:00
4:02 PM,44.6,39.2,81,29.94,3.0,Calm,Calm,-,0.00,,Overcast,0,2013-01-27 00:02:00
4:13 PM,44.6,39.2,81,29.94,2.5,Calm,Calm,-,0.00,,Overcast,0,2013-01-27 00:13:00
4:21 PM,44.6,39.2,81,29.94,3.0,South,3.5,-,0.00,,Overcast,190,2013-01-27 00:21:00
4:32 PM,44.6,39.2,81,29.94,1.5,Calm,Calm,-,0.00,,Overcast,0,2013-01-27 00:32:00
4:39 PM,44.6,39.2,81,29.94,1.0,Calm,Calm,-,0.00,Rain,Light Rain,0,2013-01-27 00:39:00
4:53 PM,43.0,39.9,89,29.95,1.2,Calm,Calm,-,0.01,Rain,Light Rain,0,2013-01-27 00:53:00
4:57 PM,42.8,39.2,87,29.95,2.0,SSW,3.5,-,0.00,Rain,Light Rain,200,2013-01-27 00:57:00
5:04 PM,42.8,39.2,87,29.95,2.0,Calm,Calm,-,0.00,Rain,Light Rain,0,2013-01-27 01:04:00
5:26 PM,42.8,39.2,87,29.96,3.0,Calm,Calm,-,0.00,Rain,Light Rain,0,2013-01-27 01:26:00
5:32 PM,42.8,39.2,87,29.96,1.8,SSE,3.5,-,0.01,Rain,Rain,160,2013-01-27 01:32:00
5:39 PM,42.8,39.2,87,29.96,2.5,SSE,3.5,-,0.02,Rain,Light Rain,160,2013-01-27 01:39:00
5:43 PM,42.8,39.2,87,29.96,3.0,Variable,3.5,-,0.02,Rain,Light Rain,0,2013-01-27 01:43:00
5:51 PM,42.8,39.2,87,29.96,2.5,SE,3.5,-,0.02,,Overcast,140,2013-01-27 01:51:00
5:53 PM,43.0,39.0,86,29.96,2.5,Calm,Calm,-,0.02,,Overcast,0,2013-01-27 01:53:00
6:01 PM,42.8,39.2,87,29.96,3.0,SSE,3.5,-,N/A,,Overcast,150,2013-01-27 02:01:00
6:27 PM,42.8,39.2,87,29.97,2.0,Calm,Calm,-,0.02,Rain,Light Rain,0,2013-01-27 02:27:00
6:39 PM,42.8,39.2,87,29.97,4.0,ESE,3.5,-,0.02,,Overcast,120,2013-01-27 02:39:00
6:53 PM,43.0,39.0,86,29.97,4.0,SE,4.6,-,0.02,,Overcast,130,2013-01-27 02:53:00
7:07 PM,42.8,39.2,87,29.97,1.8,Calm,Calm,-,0.00,Rain,Light Rain,0,2013-01-27 03:07:00
7:13 PM,42.8,39.2,87,29.97,1.0,Calm,Calm,-,0.02,Rain,Light Rain,0,2013-01-27 03:13:00
7:20 PM,42.8,39.2,87,29.98,2.0,Calm,Calm,-,0.02,Rain,Light Rain,0,2013-01-27 03:20:00
7:43 PM,42.8,39.2,87,29.98,2.5,Calm,Calm,-,0.03,Rain,Light Rain,0,2013-01-27 03:43:00
7:51 PM,42.8,39.2,87,29.98,4.0,Calm,Calm,-,0.03,,Overcast,0,2013-01-27 03:51:00
7:53 PM,42.1,39.0,89,29.98,4.0,Calm,Calm,-,0.03,,Overcast,0,2013-01-27 03:53:00
8:03 PM,42.8,37.4,81,29.98,2.5,ESE,3.5,-,0.00,Rain,Light Rain,110,2013-01-27 04:03:00
8:30 PM,42.8,39.2,87,29.99,4.0,Calm,Calm,-,0.01,,Overcast,0,2013-01-27 04:30:00
8:49 PM,42.8,37.4,81,29.99,2.5,NNW,4.6,-,0.01,Rain,Light Rain,340,2013-01-27 04:49:00
8:53 PM,42.1,37.9,85,30.00,2.5,NNW,4.6,-,0.01,Rain,Light Rain,340,2013-01-27 04:53:00
9:04 PM,42.8,39.2,87,30.00,2.5,North,3.5,-,0.01,Rain,Light Rain,360,2013-01-27 05:04:00
9:17 PM,42.8,39.2,87,30.00,4.0,Calm,Calm,-,0.02,Rain,Light Rain,0,2013-01-27 05:17:00
9:24 PM,42.8,37.4,81,30.00,2.5,Calm,Calm,-,0.02,Rain,Light Rain,0,2013-01-27 05:24:00
9:33 PM,42.8,37.4,81,30.01,2.0,Calm,Calm,-,0.03,Rain,Light Rain,0,2013-01-27 05:33:00
9:53 PM,42.1,39.0,89,30.02,1.2,Calm,Calm,-,0.06,Rain,Rain,0,2013-01-27 05:53:00
10:01 PM,42.8,39.2,87,30.01,2.0,East,3.5,-,0.01,Rain,Light Rain,80,2013-01-27 06:01:00
10:09 PM,42.8,39.2,87,30.02,5.0,Calm,Calm,-,0.01,Rain,Light Rain,0,2013-01-27 06:09:00
10:29 PM,41.0,37.4,87,30.02,6.0,Calm,Calm,-,0.01,,Scattered Clouds,0,2013-01-27 06:29:00
10:48 PM,39.2,35.6,87,30.02,1.5,Calm,Calm,-,0.01,,Scattered Clouds,0,2013-01-27 06:48:00
10:50 PM,39.2,35.6,87,30.02,0.8,Calm,Calm,-,0.01,,Scattered Clouds,0,2013-01-27 06:50:00
10:53 PM,39.9,35.1,83,30.03,0.5,Calm,Calm,-,0.01,,Haze,0,2013-01-27 06:53:00
11:13 PM,37.4,35.6,93,30.03,0.2,Calm,Calm,-,0.00,Fog-Rain,Light Rain,0,2013-01-27 07:13:00
11:35 PM,39.2,35.6,87,30.03,0.5,Calm,Calm,-,0.00,Fog,Fog,0,2013-01-27 07:35:00
11:53 PM,39.0,36.0,89,30.04,0.8,Calm,Calm,-,0.00,Rain,Light Rain,0,2013-01-27 07:53:00